Change the Weather History Date:

Thursday, March 21, 2013

  Actual Average (KBUO) Record (KBUO)
Temperature  
Mean Temperature 46 °F -  
Max Temperature 60 °F 65 °F 82 °F (1997)
Min Temperature 32 °F 43 °F 37 °F (1999)
Degree Days  
Heating Degree Days 19    
Moisture  
Dew Point 18 °F    
Average Humidity 38    
Maximum Humidity 65    
Minimum Humidity 8    
Precipitation  
Precipitation 0.00 in - - ()
Sea Level Pressure  
Sea Level Pressure 29.98 in    
Wind  
Wind Speed 7 mph (WSW)    
Max Wind Speed 14 mph    
Max Gust Speed 18 mph    
Visibility 10 miles    
Events      
Averages and records for this station are not official NWS values.
T = Trace of Precipitation, MM = Missing Value Source: NWS Daily Summary

Daily Weather History Graph

Daily Weather History Graph

Search for Another Location

Airport or City:

Trip Planner

Search our weather history database for the weather conditions in past years. The results will help you decide how hot, cold, wet, or windy it might be!

Date:

Astronomy

Mar. 21, 2013 Rise Set
Actual Time 6:49 AM PDT 7:00 PM PDT
Civil Twilight 6:24 AM PDT 7:25 PM PDT
Nautical Twilight 5:55 AM PDT 7:54 PM PDT
Astronomical Twilight 5:25 AM PDT 8:24 PM PDT
Moon 1:46 PM PDT (3/21) 3:01 AM PDT (3/21)
Length of Visible Light 13h 00m
Length of Day
12h 10m
Waxing Gibbous, 69% of the Moon is Illuminated
Mar 21
Waxing Gibbous
Mar 27
Full
Apr 2
Last Quarter
Apr 10
New
Apr 18
First Quarter

Hourly Weather History & Observations

Time (PDT) Temp. Windchill Dew Point Humidity Pressure Visibility Wind Dir Wind Speed Gust Speed Precip Events Conditions
12:15 AM 42.8 °F 36.2 °F 30.2 °F 61% 30.06 in 10.0 mi West 12.7 mph 18.4 mph N/A   Clear
12:35 AM 41.0 °F 35.2 °F 30.2 °F 65% 30.06 in 10.0 mi West 9.2 mph 16.1 mph N/A   Clear
12:55 AM 41.0 °F 35.2 °F 30.2 °F 65% 30.05 in 10.0 mi West 9.2 mph - N/A   Clear
1:15 AM 41.0 °F 34.7 °F 30.2 °F 65% 30.05 in 10.0 mi WSW 10.4 mph - N/A   Clear
1:35 AM 42.8 °F 36.6 °F 30.2 °F 61% 30.04 in 10.0 mi SW 11.5 mph 17.3 mph N/A   Clear
1:55 AM 42.8 °F 37.0 °F 28.4 °F 57% 30.04 in 10.0 mi WSW 10.4 mph 16.1 mph N/A   Clear
2:15 AM 42.8 °F 37.5 °F 30.2 °F 61% 30.04 in 10.0 mi WSW 9.2 mph - N/A   Clear
2:35 AM 42.8 °F 36.6 °F 30.2 °F 61% 30.04 in 10.0 mi SW 11.5 mph 17.3 mph N/A   Clear
2:55 AM 41.0 °F 35.8 °F 30.2 °F 65% 30.03 in 10.0 mi WSW 8.1 mph - N/A   Clear
3:15 AM 41.0 °F 35.2 °F 30.2 °F 65% 30.02 in 10.0 mi West 9.2 mph 17.3 mph N/A   Clear
3:35 AM 41.0 °F 38.0 °F 28.4 °F 61% 30.02 in 10.0 mi SW 4.6 mph - N/A   Clear
3:55 AM 41.0 °F 37.1 °F 26.6 °F 57% 30.01 in 10.0 mi SW 5.8 mph - N/A   Clear
4:15 AM 39.2 °F 35.9 °F 26.6 °F 61% 30.01 in 10.0 mi WSW 4.6 mph - N/A   Clear
4:35 AM 39.2 °F 35.9 °F 26.6 °F 61% 30.01 in 10.0 mi ENE 4.6 mph - N/A   Clear
4:55 AM 37.4 °F - 23.0 °F 56% 30.01 in 10.0 mi Calm Calm - N/A   Clear
5:15 AM 35.6 °F 32.8 °F 23.0 °F 60% 30.01 in 10.0 mi East 3.5 mph - N/A   Clear
5:55 AM 35.6 °F 32.8 °F 19.4 °F 52% 30.00 in 10.0 mi ESE 3.5 mph - N/A   Clear
6:15 AM 33.8 °F 30.8 °F 17.6 °F 52% 30.00 in 10.0 mi East 3.5 mph - N/A   Clear
6:35 AM 32.0 °F - 15.8 °F 51% 30.00 in 10.0 mi Calm Calm - N/A   Clear
6:55 AM 33.8 °F - 14.0 °F 44% 30.00 in 10.0 mi Calm Calm - N/A   Clear
7:15 AM 32.0 °F - 12.2 °F 44% 30.01 in 10.0 mi Calm Calm - N/A   Clear
7:35 AM 35.6 °F 32.8 °F 12.2 °F 38% 30.01 in 10.0 mi South 3.5 mph - N/A   Clear
7:55 AM 37.4 °F 34.9 °F 8.6 °F 30% 30.01 in 10.0 mi West 3.5 mph - N/A   Clear
8:15 AM 41.0 °F - 10.4 °F 29% 30.02 in 10.0 mi Calm Calm - N/A   Clear
8:35 AM 41.0 °F - 10.4 °F 29% 30.02 in 10.0 mi Calm Calm - N/A   Clear
8:55 AM 42.8 °F 39.3 °F 12.2 °F 29% 30.01 in 10.0 mi West 5.8 mph - N/A   Clear
9:35 AM 50.0 °F - 6.8 °F 17% 30.02 in 10.0 mi Calm Calm - N/A   Clear
9:55 AM 51.8 °F - 5.0 °F 15% 30.02 in 10.0 mi Calm Calm - N/A   Clear
10:15 AM 53.6 °F - 3.2 °F 13% 30.02 in 10.0 mi Calm Calm - N/A   Clear
10:35 AM 55.4 °F - -0.4 °F 10% 30.01 in 10.0 mi Calm Calm - N/A   Clear
10:55 AM 55.4 °F - -4.0 °F 9% 30.01 in 10.0 mi NNE 3.5 mph - N/A   Clear
11:15 AM 57.2 °F - -0.4 °F 10% 30.01 in 10.0 mi Calm Calm - N/A   Clear
11:35 AM 59.0 °F - -0.4 °F 9% 30.00 in 10.0 mi West 8.1 mph - N/A   Clear
11:55 AM 59.0 °F - -2.2 °F 8% 30.00 in 10.0 mi West 8.1 mph - N/A   Clear
12:15 PM 60.8 °F - 3.2 °F 10% 30.00 in 10.0 mi Calm Calm - N/A   Clear
12:35 PM 60.8 °F - 14.0 °F 16% 30.00 in 10.0 mi ENE 11.5 mph - N/A   Clear
12:55 PM 60.8 °F - 14.0 °F 16% 30.00 in 10.0 mi East 3.5 mph 9.2 mph N/A   Clear
1:15 PM 59.0 °F - 6.8 °F 13% 29.99 in 10.0 mi West 11.5 mph - N/A   Clear
1:35 PM 60.8 °F - -0.4 °F 8% 29.98 in 10.0 mi West 11.5 mph - N/A   Clear
1:55 PM 60.8 °F - 1.4 °F 9% 29.97 in 10.0 mi West 10.4 mph - N/A   Clear
2:15 PM 60.8 °F - 5.0 °F 11% 29.97 in 10.0 mi West 11.5 mph - N/A   Clear
2:35 PM 60.8 °F - 6.8 °F 12% 29.96 in 10.0 mi West 13.8 mph - N/A   Clear
2:55 PM 59.0 °F - 10.4 °F 15% 29.96 in 10.0 mi West 12.7 mph 16.1 mph N/A   Clear
3:15 PM 59.0 °F - 10.4 °F 15% 29.95 in 10.0 mi WSW 10.4 mph - N/A   Clear
3:35 PM 59.0 °F - 8.6 °F 14% 29.95 in 10.0 mi West 11.5 mph 16.1 mph N/A   Clear
3:55 PM 59.0 °F - 14.0 °F 17% 29.95 in 10.0 mi West 12.7 mph - N/A   Clear
4:15 PM 57.2 °F - 12.2 °F 17% 29.95 in 10.0 mi West 10.4 mph - N/A   Clear
4:35 PM 55.4 °F - 17.6 °F 23% 29.95 in 10.0 mi West 10.4 mph - N/A   Clear
4:55 PM 55.4 °F - 19.4 °F 25% 29.94 in 10.0 mi West 13.8 mph - N/A   Clear
5:15 PM 53.6 °F - 24.8 °F 33% 29.94 in 10.0 mi West 10.4 mph - N/A   Clear
5:35 PM 53.6 °F - 19.4 °F 26% 29.94 in 10.0 mi WSW 10.4 mph 16.1 mph N/A   Clear
5:55 PM 53.6 °F - 23.0 °F 30% 29.94 in 10.0 mi West 11.5 mph - N/A   Clear
6:15 PM 51.8 °F - 19.4 °F 28% 29.94 in 10.0 mi WSW 5.8 mph - N/A   Clear
6:35 PM 50.0 °F - 28.4 °F 43% 29.94 in 10.0 mi WSW 5.8 mph - N/A   Clear
6:55 PM 50.0 °F - 21.2 °F 32% 29.94 in 10.0 mi WSW 5.8 mph - N/A   Clear
7:15 PM 48.2 °F - 19.4 °F 32% 29.94 in 10.0 mi WSW 5.8 mph - N/A   Clear
7:35 PM 46.4 °F 45.2 °F 21.2 °F 37% 29.94 in 10.0 mi SSW 3.5 mph - N/A   Clear
7:55 PM 44.6 °F 42.2 °F 21.2 °F 39% 29.92 in 10.0 mi SW 4.6 mph - N/A   Clear
8:15 PM 42.8 °F - 23.0 °F 46% 29.93 in 10.0 mi Calm Calm - N/A   Clear
8:35 PM 39.2 °F - 23.0 °F 52% 29.92 in 10.0 mi Calm Calm - N/A   Clear
8:55 PM 41.0 °F 36.4 °F 28.4 °F 61% 29.92 in 10.0 mi WSW 6.9 mph - N/A   Clear
9:15 PM 42.8 °F 38.6 °F 28.4 °F 57% 29.92 in 10.0 mi WSW 6.9 mph - N/A   Clear
9:35 PM 42.8 °F 38.6 °F 26.6 °F 53% 29.92 in 10.0 mi West 6.9 mph - N/A   Clear
9:55 PM 41.0 °F 35.8 °F 28.4 °F 61% 29.92 in 10.0 mi WSW 8.1 mph - N/A   Clear
10:15 PM 41.0 °F 38.0 °F 28.4 °F 61% 29.92 in 10.0 mi WSW 4.6 mph - N/A   Clear
10:35 PM 39.2 °F 33.6 °F 28.4 °F 65% 29.92 in 10.0 mi West 8.1 mph - N/A   Clear
10:55 PM 39.2 °F 35.0 °F 28.4 °F 65% 29.91 in 10.0 mi WSW 5.8 mph - N/A   Clear
11:15 PM 37.4 °F 32.8 °F 26.6 °F 65% 29.91 in 10.0 mi WSW 5.8 mph - N/A   Clear
11:35 PM 39.2 °F 34.2 °F 19.4 °F 45% 29.89 in 10.0 mi WSW 6.9 mph - N/A   Clear
11:55 PM 41.0 °F 34.7 °F 10.4 °F 29% 29.88 in 10.0 mi WSW 10.4 mph 17.3 mph N/A   Clear